Regional Weather Roundup
Issued by NWS

Home | Current Version | Previous Version | Graphics & Text | Print | Product List | Glossary On
Versions: 1 2 3 4 5 6 7 8 9 10 11 12 13 14 15 16 17 18 19 20 21 22 23 24 25 26 27 28 29 30 31 32 33 34 35 36 37 38 39 40 41 42 43 44 45 46 47 48 49 50
000
ASUS43 KMPX 041901
RWRMN
WEATHER ROUNDUP FOR MINNESOTA
NATIONAL WEATHER SERVICE TWIN CITIES/CHANHASSEN MN
200 PM CDT SAT JUL 04 2015


NOTE: "FAIR" INDICATES FEW OR NO CLOUDS BELOW 12,000 FEET WITH NO
SIGNIFICANT WEATHER AND/OR OBSTRUCTIONS TO VISIBILITY. N/A MEANS
CURRENT SKY AND/OR WEATHER CONDITIONS ARE NOT AVAILABLE.

MNZ060>063-068>070-042000-
   Twin Cities Metro

CITY           SKY/WX    TMP DP  RH WIND       PRES   REMARKS
TWIN CITIES    PTSUNNY   83  64  52 S6        29.93S HAZE
ST PAUL        MOSUNNY   81  67  62 S6        29.93S HAZE
CRYSTAL        MOSUNNY   84  63  49 SW8       29.92S HAZE
LAKEVILLE      MOSUNNY   81  66  61 SW3       29.95R HAZE
EDEN PRAIRIE   CLOUDY    82  66  58 SW7       29.93S HAZE
SOUTH ST PAUL  MOSUNNY   82  65  56 SW6       29.93S
LAKE ELMO      FAIR      81  66  61 S8        29.95S HAZE
$$
MNZ001>005-007-008-013>017-022>024-027-028-042000-
   Northwest Minnesota

CITY           SKY/WX    TMP DP  RH WIND       PRES   REMARKS
BEMIDJI        SUNNY     79  62  54 S8        29.90S
HALLOCK        SUNNY     82  70  65 S17       29.78F HAZE
ROSEAU         SUNNY     81  66  61 S14       29.83F HAZE
WARROAD        SUNNY     81  66  61 S10G18    29.84F HAZE
THIEF RVR FALL MOSUNNY   81  64  57 S12G17    29.84F
CROOKSTON      SUNNY     82  66  57 SW13G21   29.83F HAZE
FOSSTON        SUNNY     79  64  61 S8        29.88F HAZE
DETROIT LAKES  SUNNY     81  64  57 S7        29.90S HAZE
MOORHEAD       SUNNY     81  66  61 S12       29.85S
PARK RAPIDS    CLOUDY    81  60  48 S12       29.91S HAZE
MAHNOMEN       FAIR      80  64  59 S9        29.87S HAZE
$$
MNZ006-009>011-018-025>026-042000-
   North Central Minnesota

CITY           SKY/WX    TMP DP  RH WIND       PRES   REMARKS
BAUDETTE       SUNNY     79  60  52 S10G17    29.86F HAZE
FLAG ISLAND    SUNNY     73  64  73 S13       29.83F
INTL FALLS     MOSUNNY   79  57  46 VRB6      29.90F
WASKISH        SUNNY     81  61  50 S7        29.89S
BIG FORK       SUNNY     81  57  44 S6        29.92S
LONGVILLE      SUNNY     79  59  50 S6        29.92F HAZE
GRAND RAPIDS   SUNNY     79  55  44 S9        29.93S
CRANE LAKE     MOSUNNY   75  54  46 S5        29.94F
ORR            SUNNY     81  52  36 CALM      29.90F
COOK           SUNNY     79  54  41 S7        29.93F
WALKER         FAIR      78  61  54 SE8       29.91S
$$
MNZ012-019>021-037-042000-
   Northeast Minnesota

CITY           SKY/WX    TMP DP  RH WIND       PRES   REMARKS
DULUTH         SUNNY     75  60  59 SE9       29.96S
ELY            MOSUNNY   79  48  34 SW3       29.95S
HIBBING        SUNNY     80  54  40 VRB3      29.93F
DULUTH HARBOR  SUNNY     66  61  82 NE9       29.97S
SILVER BAY     SUNNY     73  57  56 E7        29.97R
GRAND MARAIS     N/A     63  56  78 CALM      29.98S
G MARAIS ARPRT MOSUNNY   70  54  56 S5        30.01F
$$
MNZ029>031-032-039>041-046>048-054>057-064-042000-
   West Central Minnesota

CITY           SKY/WX    TMP DP  RH WIND       PRES   REMARKS
FERGUS FALLS   SUNNY     81  66  61 S12       29.87S
WHEATON        SUNNY     79  64  61 S13       29.88S
MORRIS         MOSUNNY   82  64  54 S12       29.89S
ALEXANDRIA     MOSUNNY   80  67  64 S12       29.93S
ELBOW LAKE     PTSUNNY   80  68  65 S12       29.89S
WADENA         SUNNY     81  63  54 S10G16    29.90F HAZE
GLENWOOD       SUNNY     82  66  57 S9        29.93S
APPLETON       MOSUNNY   86  63  45 S12       29.88F
BENSON         MOSUNNY   82  64  54 SW8       29.90F
ORTONVILLE     SUNNY     82  63  51 S9        29.88F
MADISON        SUNNY     82  61  47 S10       29.89F
WILLMAR          N/A     82  68  61 SW6       29.93F
$$
MNZ033>034-036-042>043-049>051-058-059-042000-
   Central Minnesota

CITY           SKY/WX    TMP DP  RH WIND       PRES   REMARKS
ST CLOUD       MOSUNNY   83  62  49 S8        29.92S HAZE
SAUK CENTRE    MOCLDY    81  67  62 S7        29.92F
PAYNESVILLE    MOSUNNY   79  66  64 S7        29.93S
AITKIN         SUNNY     81  61  50 S7        29.92S HAZE
PINE RIVER       N/A     81  63  54 S7        29.95S HAZE
BRAINERD       CLOUDY    82  61  48 S8        29.93S HAZE
STAPLES        MOSUNNY   81  61  50 S7        29.91F HAZE
LONG PRAIRIE   PTSUNNY   79  64  61 SE9       29.93S HAZE
LITTLE FALLS   SUNNY     81  59  47 S9        29.92S HAZE
LITCHFIELD     SUNNY     81  70  69 S6        29.93S
BUFFALO        MOSUNNY   82  65  57 S6        29.94S
MAPLE LAKE     SUNNY     83  70  64 SE7       29.93F
$$
MNZ037-044-045-052-053-042000-
   East Central Minnesota

CITY           SKY/WX    TMP DP  RH WIND       PRES   REMARKS
PRINCETON      SUNNY     84  63  48 S3        29.93S HAZE
MORA           SUNNY     79  59  50 CALM      29.95S HAZE
CAMBRIDGE      SUNNY     84  64  51 S8        29.92S HAZE
RUSH CITY      MOSUNNY   81  61  50 SE3       29.94S
MOOSE LAKE     MOSUNNY   79  59  50 SE3       29.92S
HINCKLEY       FAIR      81  59  47 S8        29.94S
CLOQUET        SUNNY     77  57  50 E6        29.95F
MCGREGOR       MOSUNNY   81  57  44 SE10      29.93F
$$
MNZ071>073-080-081-089-090-097-098-042000-
   Southwest Minnesota

CITY           SKY/WX    TMP DP  RH WIND       PRES   REMARKS
MONTEVIDEO     MOSUNNY   84  66  54 SW5       29.91F
GRANITE FALLS  MOSUNNY   82  65  56 SE10      29.93S
CANBY          SUNNY     81  62  52 S8        29.91F
MARSHALL       SUNNY     81  63  54 SW13        N/A
REDWOOD FALLS  SUNNY     84  64  50 SW9       29.92F
OLIVIA         SUNNY     79  63  57 S9        29.92S
PIPESTONE      MOSUNNY   79  63  57 SW10      29.95F
WINDOM         MOSUNNY   81  63  54 S8        29.97R
WORTHINGTON    MOSUNNY   79  61  53 S14       29.97S
JACKSON        MOSUNNY   81  63  54 S10       29.98S
TRACY          SUNNY     81  65  59 S9        29.95S
SLAYTON        MOSUNNY   79  60  53 S7        29.97S HAZE
$$
MNZ065>067-074>077-082>085-091>093-042000-
   South Central Minnesota

CITY           SKY/WX    TMP DP  RH WIND       PRES   REMARKS
MANKATO        PTSUNNY   81  66  61 S9        29.95S
NEW ULM        MOSUNNY   81  64  57 SW7       29.94S
ST JAMES       MOSUNNY   81  64  57 S9        29.96S
FAIRMONT       SUNNY     79  59  50 S10       29.97S
GLENCOE        PTSUNNY   83  70  65 S7        29.93F
FARIBAULT      MOSUNNY   81  66  61 S7        29.96S
OWATONNA       SUNNY     81  64  57 S8        29.97S
WASECA         PTSUNNY   79  64  61 W10       29.98S
ALBERT LEA     SUNNY     81  61  50 SW6       29.98S
$$
MNZ078>079-086>088-094>096-042000-
   Southeast Minnesota

CITY           SKY/WX    TMP DP  RH WIND       PRES   REMARKS
ROCHESTER      SUNNY     80  64  58 SW9       29.99S
RED WING       SUNNY     82  64  54 SE5       29.93S HAZE
DODGE CENTER   SUNNY     79  64  61 SW8       29.98S
WINONA         SUNNY     81  63  54 CALM      29.96S
AUSTIN         MOSUNNY   81  63  54 S9        29.98S
PRESTON        MOSUNNY   78  63  60 S8        29.99S
$$
ABBREVIATIONS USED IN REMARKS
   TC - TEMPERATURES IN CELSIUS
  WCI - WIND CHILL INDEX
   HX - HEAT INDEX
  VSB - VISIBILITY
$$


USA.gov is the U.S. government's official web portal to all federal, state and local government web resources and services.